OE3MNS-13 Weather Reports


Display with metric or nautical units.
time (UTC)temp
F
wind
direction
speed
MPH
gust
MPH
rain 1hr
in
rain 24hr
in
rain mn
in
humidity
%
barometer
mb
20260507174017 62 218 4.0 10.0 0.00 0.00 0.00 52 1012.8
20260507173022 63 230 4.0 11.0 0.00 0.00 0.00 52 1012.8
20260507172021 63 234 2.0 7.0 0.00 0.00 0.00 51 1012.6
20260507171019 63 225 5.0 10.0 0.00 0.00 0.00 50 1012.4
20260507170021 63 215 6.0 14.0 0.00 0.00 0.00 49 1012.3
20260507165039 64 222 3.0 9.0 0.00 0.00 0.00 48 1012.3
20260507164021 64 202 3.0 8.0 0.00 0.00 0.00 47 1012.3
20260507163020 65 219 3.0 10.0 0.00 0.00 0.00 46 1012.1
20260507162020 65 228 4.0 14.0 0.00 0.00 0.00 45 1012.2
20260507161020 65 219 4.0 9.0 0.00 0.00 0.00 45 1012.0
20260507160018 65 224 3.0 8.0 0.00 0.00 0.00 44 1012.0
20260507155018 66 221 4.0 11.0 0.00 0.00 0.00 44 1011.9
20260507154017 66 222 2.0 7.0 0.00 0.00 0.00 44 1012.0
20260507153020 67 173 2.0 7.0 0.00 0.00 0.00 44 1011.6
20260507152022 67 173 2.0 6.0 0.00 0.00 0.00 44 1011.5
20260507151017 67 222 4.0 9.0 0.00 0.00 0.00 43 1011.6
20260507150020 67 218 3.0 10.0 0.00 0.00 0.00 43 1011.6
20260507145024 67 228 2.0 7.0 0.00 0.00 0.00 43 1011.5
20260507144018 68 226 2.0 6.0 0.00 0.00 0.00 43 1011.5
20260507143020 68 224 2.0 6.0 0.00 0.00 0.00 42 1011.5
20260507142019 68 230 4.0 11.0 0.00 0.00 0.00 40 1011.5
20260507141040 69 240 3.0 7.0 0.00 0.00 0.00 40 1011.6
20260507140017 69 232 1.0 4.0 0.00 0.00 0.00 40 1011.6
20260507135024 69 290 3.0 9.0 0.00 0.00 0.00 39 1011.5
20260507134020 70 310 2.0 7.0 0.00 0.00 0.00 40 1011.5
20260507133022 69 304 2.0 6.0 0.00 0.00 0.00 40 1011.5
20260507132022 69 290 1.0 3.0 0.00 0.00 0.00 38 1011.7
20260507131021 69 281 2.0 7.0 0.00 0.00 0.00 41 1011.9
20260507130024 68 283 2.0 6.0 0.00 0.00 0.00 41 1011.8
20260507125018 69 252 2.0 6.0 0.00 0.00 0.00 40 1011.9
20260507124020 69 326 3.0 8.0 0.00 0.00 0.00 41 1011.8
20260507123020 69 160 2.0 9.0 0.00 0.00 0.00 40 1011.9
20260507122021 70 359 1.0 3.0 0.00 0.00 0.00 39 1012.0
20260507121019 70 215 3.0 8.0 0.00 0.00 0.00 39 1012.1
20260507120019 70 230 4.0 11.0 0.00 0.00 0.00 40 1012.1
20260507114752 69 210 3.0 6.0 0.00 0.00 0.00 42 1012.0
20260507114522 69 258 3.0 9.0 0.00 0.00 0.00 42 1012.3
20260507113519 67 273 3.0 10.0 0.00 0.00 0.00 43 1012.4
20260507112520 67 244 3.0 9.0 0.00 0.00 0.00 43 1012.5
20260507111518 67 251 3.0 11.0 0.00 0.00 0.00 44 1012.5
20260507110519 66 237 3.0 10.0 0.00 0.00 0.00 46 1012.7
20260507105519 66 277 4.0 15.0 0.00 0.00 0.00 46 1012.6
20260507104422 65 305 4.0 11.0 0.00 0.00 0.00 46 1012.9
20260507104019 65 262 6.0 14.0 0.00 0.00 0.00 48 1012.7
20260507103023 65 228 5.0 16.0 0.00 0.00 0.00 47 1012.9
20260507102021 65 238 4.0 15.0 0.00 0.00 0.00 48 1013.0
20260507101021 64 280 4.0 16.0 0.00 0.00 0.00 50 1013.0
20260507100019 63 227 3.0 9.0 0.00 0.00 0.00 50 1013.0
20260507095042 63 279 5.0 19.0 0.00 0.00 0.00 51 1013.0
20260507094016 63 267 6.0 16.0 0.00 0.00 0.00 51 1013.0
20260507093019 63 248 4.0 15.0 0.00 0.00 0.00 51 1013.0
20260507092037 63 243 5.0 14.0 0.00 0.00 0.00 51 1012.8
20260507091018 62 254 5.0 15.0 0.00 0.00 0.00 51 1012.8
20260507090017 62 241 5.0 16.0 0.00 0.00 0.00 52 1012.8
20260507085021 63 256 5.0 16.0 0.00 0.00 0.00 53 1012.6
20260507084021 62 251 5.0 13.0 0.00 0.00 0.00 52 1012.5
20260507083018 61 256 5.0 16.0 0.00 0.00 0.00 54 1012.5
20260507082020 61 272 6.0 21.0 0.00 0.00 0.00 55 1012.4
20260507081020 60 276 7.0 22.0 0.00 0.00 0.00 56 1012.4
20260507080020 60 239 5.0 16.0 0.00 0.00 0.00 56 1012.3
20260507075038 59 253 6.0 19.0 0.00 0.00 0.00 57 1012.3
20260507074036 59 258 6.0 25.0 0.00 0.00 0.00 58 1012.2
20260507073042 59 269 7.0 16.0 0.00 0.00 0.00 58 1012.1
20260507072020 59 226 6.0 17.0 0.00 0.00 0.00 58 1011.9
20260507071023 59 258 6.0 16.0 0.00 0.00 0.00 58 1011.9
20260507070021 59 230 4.0 14.0 0.00 0.00 0.00 60 1011.8
20260507065023 58 247 6.0 21.0 0.00 0.00 0.00 61 1011.9
20260507064021 58 256 5.0 13.0 0.00 0.00 0.00 63 1012.0
20260507063021 57 272 4.0 14.0 0.00 0.00 0.00 64 1012.0
20260507062017 57 259 4.0 11.0 0.00 0.00 0.00 65 1011.8
20260507061021 56 251 4.0 15.0 0.00 0.00 0.00 65 1011.8
20260507060038 56 248 5.0 11.0 0.00 0.00 0.00 65 1011.7
20260507055020 56 245 4.0 14.0 0.00 0.00 0.00 65 1011.4
20260507054022 56 261 4.0 16.0 0.00 0.00 0.00 65 1011.5
20260507053021 56 263 4.0 9.0 0.00 0.00 0.00 66 1011.4
20260507052019 56 245 3.0 11.0 0.00 0.00 0.00 67 1011.4
20260507051017 56 233 3.0 10.0 0.00 0.00 0.00 67 1011.3
20260507050019 56 237 4.0 10.0 0.00 0.00 0.00 67 1011.2
20260507045017 56 256 3.0 11.0 0.00 0.00 0.00 67 1011.0
20260507044021 56 260 3.0 11.0 0.00 0.00 0.00 67 1011.0
20260507043024 56 254 4.0 14.0 0.00 0.00 0.00 66 1010.7
20260507042020 56 243 4.0 9.0 0.00 0.00 0.00 66 1010.7
20260507041042 56 249 3.0 9.0 0.00 0.00 0.00 67 1010.6
20260507040023 56 232 3.0 8.0 0.00 0.00 0.00 67 1010.6
20260507035021 56 243 2.0 8.0 0.00 0.00 0.00 67 1010.5
20260507034020 56 239 3.0 10.0 0.00 0.00 0.00 66 1010.4
20260507033022 56 242 4.0 16.0 0.00 0.00 0.00 66 1010.3
20260507032021 56 262 4.0 13.0 0.00 0.00 0.00 65 1010.1
20260507031018 56 256 4.0 14.0 0.00 0.00 0.00 64 1010.2
20260507030016 57 254 5.0 18.0 0.00 0.00 0.00 64 1010.1
20260507025020 57 261 5.0 14.0 0.00 0.00 0.00 63 1010.1
20260507024021 57 262 5.0 14.0 0.00 0.00 0.00 63 1009.9
20260507023023 57 258 4.0 15.0 0.00 0.00 0.00 64 1009.8
20260507022019 57 250 4.0 15.0 0.00 0.00 0.00 65 1009.9
20260507021021 57 263 4.0 13.0 0.00 0.00 0.00 65 1009.9
20260507020042 57 245 3.0 9.0 0.00 0.00 0.00 65 1009.8
20260507015021 57 254 4.0 14.0 0.00 0.00 0.00 66 1009.8
20260507014020 57 244 4.0 15.0 0.00 0.00 0.00 66 1009.8
20260507013020 57 277 3.0 15.0 0.00 0.00 0.00 66 1009.8
20260507012045 57 232 4.0 16.0 0.00 0.00 0.00 67 1009.6
20260507010022 58 253 2.0 11.0 0.00 0.00 0.00 68 1009.3
20260507005018 58 249 5.0 17.0 0.00 0.00 0.00 68 1009.2
20260507004023 58 249 5.0 14.0 0.00 0.00 0.00 68 1009.0
20260507003019 58 244 4.0 13.0 0.00 0.00 0.00 67 1009.2
20260507002020 59 259 5.0 17.0 0.00 0.00 0.00 67 1009.1
20260507001101 59 248 5.0 17.0 0.00 0.00 0.00 67 1009.0
20260507000018 59 237 6.0 17.0 0.00 0.00 0.00 67 1009.0
20260506235017 59 247 5.0 15.0 0.00 0.00 0.00 67 1008.8
20260506234039 59 244 7.0 18.0 0.00 0.00 0.00 67 1008.6
20260506233018 59 251 5.0 17.0 0.00 0.00 0.00 67 1008.4
20260506232039 60 220 7.0 15.0 0.00 0.00 0.00 67 1008.4
20260506231019 60 246 6.0 16.0 0.00 0.00 0.00 68 1008.2
20260506230022 60 236 6.0 22.0 0.00 0.00 0.00 70 1008.0
20260506225018 60 259 5.0 17.0 0.00 0.00 0.00 71 1007.8
20260506224020 60 259 6.0 14.0 0.00 0.00 0.00 70 1007.7
20260506223018 61 263 6.0 18.0 0.00 0.00 0.00 68 1007.7
20260506222038 61 251 8.0 29.0 0.00 0.00 0.00 66 1007.2
20260506221017 62 229 10.0 22.0 0.00 0.00 0.00 63 1006.7
20260506220019 62 240 8.0 21.0 0.00 0.00 0.00 62 1006.5
20260506215040 62 234 6.0 17.0 0.00 0.00 0.00 61 1006.5
20260506214018 63 231 7.0 21.0 0.00 0.00 0.00 60 1006.3
20260506213043 63 216 6.0 17.0 0.00 0.00 0.00 59 1006.1
20260506212018 63 230 6.0 16.0 0.00 0.00 0.00 58 1005.8
20260506211017 62 289 1.0 3.0 0.00 0.00 0.00 58 1005.4
20260506210020 64 317 0.0 1.0 0.00 0.00 0.00 56 1005.1
20260506205040 65 330 1.0 2.0 0.00 0.00 0.00 53 1004.9
20260506204017 65 155 2.0 3.0 0.00 0.00 0.00 51 1004.7
20260506203020 66 155 2.0 3.0 0.00 0.00 0.00 51 1004.6
20260506202023 67 145 3.0 6.0 0.00 0.00 0.00 49 1004.5
20260506201100 67 161 2.0 6.0 0.00 0.00 0.00 49 1004.5
20260506200021 67 146 3.0 4.0 0.00 0.00 0.00 50 1004.2
20260506195021 67 142 3.0 6.0 0.00 0.00 0.00 49 1004.2
20260506194020 68 141 3.0 8.0 0.00 0.00 0.00 48 1004.0
20260506193020 68 148 4.0 8.0 0.00 0.00 0.00 49 1003.8
20260506192023 68 141 5.0 8.0 0.00 0.00 0.00 48 1003.8
20260506191023 68 145 4.0 8.0 0.00 0.00 0.00 48 1003.5
20260506190023 68 164 5.0 9.0 0.00 0.00 0.00 48 1003.3
20260506185021 68 146 5.0 8.0 0.00 0.00 0.00 48 1003.4
20260506184018 69 148 6.0 10.0 0.00 0.00 0.00 48 1003.2
20260506183018 69 144 5.0 9.0 0.00 0.00 0.00 48 1003.3
20260506182020 69 144 6.0 10.0 0.00 0.00 0.00 47 1002.9
20260506181021 70 137 5.0 11.0 0.00 0.00 0.00 46 1002.9
20260506180042 70 141 6.0 9.0 0.00 0.00 0.00 46 1002.9
20260506175039 71 143 5.0 10.0 0.00 0.00 0.00 45 1002.7